TimeCDT,TemperatureF,Dew PointF,Humidity,Sea Level PressureIn,VisibilityMPH,Wind Direction,Wind SpeedMPH,Gust SpeedMPH,PrecipitationIn,Events,Conditions,WindDirDegrees,DateUTC
12:53 AM,69.1,66.0,90,29.99,10.0,East,4.6,-,N/A,,Clear,100,2012-10-04 05:53:00
1:19 AM,69.8,66.2,88,30.04,10.0,East,3.5,-,N/A,,Mostly Cloudy,100,2012-10-04 06:19:00
1:53 AM,70.0,66.9,90,29.99,10.0,ESE,4.6,-,N/A,,Overcast,110,2012-10-04 06:53:00
2:04 AM,69.8,68.0,94,30.04,10.0,ESE,3.5,-,N/A,,Overcast,120,2012-10-04 07:04:00
2:53 AM,70.0,68.0,93,29.99,10.0,East,3.5,-,N/A,,Overcast,100,2012-10-04 07:53:00
3:53 AM,71.1,69.1,93,29.97,10.0,ESE,3.5,-,N/A,,Overcast,110,2012-10-04 08:53:00
4:09 AM,71.6,69.8,94,30.02,10.0,ESE,5.8,-,N/A,,Overcast,110,2012-10-04 09:09:00
4:53 AM,72.0,71.1,97,29.97,10.0,ESE,4.6,-,N/A,,Overcast,110,2012-10-04 09:53:00
5:53 AM,72.0,72.0,100,29.99,9.0,SE,6.9,-,N/A,,Overcast,130,2012-10-04 10:53:00
6:53 AM,73.0,72.0,96,29.99,8.0,SE,10.4,-,N/A,,Overcast,140,2012-10-04 11:53:00
7:53 AM,73.9,72.0,93,30.01,7.0,SSE,12.7,-,N/A,,Overcast,150,2012-10-04 12:53:00
8:14 AM,73.4,71.6,94,30.06,7.0,SE,11.5,-,N/A,,Overcast,140,2012-10-04 13:14:00
8:53 AM,75.0,72.0,90,30.03,8.0,SSE,11.5,-,N/A,,Overcast,150,2012-10-04 13:53:00
9:42 AM,75.2,71.6,89,30.08,10.0,SSE,13.8,-,N/A,,Overcast,150,2012-10-04 14:42:00
9:53 AM,75.9,72.0,87,30.04,9.0,SSE,12.7,-,N/A,,Overcast,150,2012-10-04 14:53:00
10:53 AM,78.1,72.0,81,30.04,10.0,SSE,12.7,20.7,N/A,,Mostly Cloudy,150,2012-10-04 15:53:00
11:53 AM,82.0,72.0,71,30.04,10.0,SSE,11.5,-,N/A,,Scattered Clouds,150,2012-10-04 16:53:00
12:53 PM,86.0,72.0,63,30.03,10.0,SSE,11.5,-,N/A,,Scattered Clouds,150,2012-10-04 17:53:00
1:53 PM,87.1,71.1,59,30.01,10.0,South,15.0,20.7,N/A,,Scattered Clouds,170,2012-10-04 18:53:00
2:53 PM,88.0,69.1,53,29.99,10.0,SSE,13.8,-,N/A,,Scattered Clouds,160,2012-10-04 19:53:00
3:53 PM,89.1,69.1,52,29.98,10.0,SE,15.0,20.7,N/A,,Scattered Clouds,140,2012-10-04 20:53:00
4:53 PM,90.0,66.9,46,29.98,10.0,SSE,15.0,-,N/A,,Partly Cloudy,160,2012-10-04 21:53:00
5:53 PM,88.0,69.1,53,29.98,10.0,SE,13.8,-,N/A,,Partly Cloudy,140,2012-10-04 22:53:00
6:53 PM,84.0,72.0,67,29.99,10.0,SE,18.4,-,N/A,,Partly Cloudy,130,2012-10-04 23:53:00
7:53 PM,81.0,72.0,74,30.00,10.0,SE,18.4,24.2,N/A,,Clear,130,2012-10-05 00:53:00
8:53 PM,78.1,72.0,81,30.03,10.0,SE,12.7,-,N/A,,Partly Cloudy,130,2012-10-05 01:53:00
9:17 PM,78.8,71.6,78,30.09,10.0,SE,13.8,-,N/A,,Mostly Cloudy,130,2012-10-05 02:17:00
9:53 PM,77.0,72.0,84,30.05,10.0,SE,11.5,-,N/A,,Overcast,130,2012-10-05 02:53:00
10:53 PM,75.9,73.0,91,30.06,10.0,ESE,8.1,-,N/A,,Overcast,120,2012-10-05 03:53:00
11:53 PM,75.9,72.0,87,30.06,10.0,SE,6.9,-,N/A,,Overcast,130,2012-10-05 04:53:00